Location: Ladrillo (historical)
(32.8195°N, 117.2231°W)
Time: 23:48:33
(UTC+00:00)

Altair - Pass Details

Date: 28 February 2021
Orbit: 1501 x 1683 km, 47.2° (Epoch: 16 April)

Event Time Altitude Azimuth Distance (km) Brightness Sun altitude
Rises 02:16:12 0° 222° (SW) 4,620 10.8 -7.4°
Reaches altitude 10° 02:19:12 10° 221° (SW) 3,642 10.2 -8.0°
Maximum altitude 02:28:18 73° 138° (SE) 1,571 7.5 -9.9°
Drops below altitude 10° 02:37:38 10° 56° (NE) 3,737 9.0 -11.9°
Enters shadow 02:38:35 - 55° (NE) 4,038 9.2 -12.1°
